Weather in Yanqi

China     42°03′53″N   86°34′14″E
temp.,
°C
wind,
m/s
gust,
m/s
humid.,
%
clouds,
%
prec.,
mm/h
press.,
hPa
HPBL,
m
11 april, sun
sun1123:00+15sw34395 0.0 101562
02:00+13ne22460 0.0 101539
05:00+10ne22600 0.0 101643
08:00+9ne22575 0.0 101717
11:00+14nne11293 0.0 1017535
14:00+17ese11240 0.0 10151550
17:00+19ssw03255 0.0 10132029
20:00+19ese22230 0.0 10131109
12 april, mon
mon1223:00+15e583493 0.0 1016212
02:00+12e1014476 0.0 1018664
05:00+10e6124679 0.0 1021545
08:00+9e41152100 0.0 1024524
11:00+11e8839100 0.0 10251002
14:00+12e6742100 0.0 10251004
17:00+14ene56335 0.0 10231318
20:00+13ene46280 0.0 1023646
13 april, tue
tue1323:00+11nne34365 0.0 102592
02:00+10nne33355 0.0 102538
05:00+9e23370 0.0 102527
08:00+8ene33432 0.0 102641
11:00+12ene33280 0.0 1025664
14:00+15ese22190 0.0 10231720
17:00+16sse221844 0.0 10191937
20:00+16se322080 0.0 1018936
14 april, wed
wed1423:00+13se332596 0.0 102045
02:00+12e22297 0.0 102011
05:00+10ene11330 0.0 102010
08:00+9e11350 0.0 102111
11:00+14nnw01250 0.0 1021466
14:00+18wsw12210 0.0 10201382
17:00+20ssw12170 0.0 10172150
20:00+19se32180 0.0 10161042
15 april, thu
thu1523:00+16sse22265 0.0 101830
02:00+14ese22290 0.0 101816
05:00+12n22290 0.0 101813
08:00+11wsw00325 0.0 101810
11:00+16nnw11203 0.0 1017417
14:00+20sw34215 0.0 10142248
17:00+21sw86190 0.0 10112680
20:00+21n22195 0.0 10101652